Regional Weather Roundup
Issued by NWS

Home | Current Version | Previous Version | Graphics & Text | Print | Product List | Glossary On
Versions: 1 2 3 4 5 6 7 8 9 10 11 12 13 14 15 16 17 18 19 20 21 22 23 24 25 26 27
000
ASUS45 KTFX 111110
RWRMT
MONTANA REGIONAL WEATHER ROUNDUP
NATIONAL WEATHER SERVICE GREAT FALLS MT
400 AM MST MON DEC 11 2017

NOTE: "FAIR" INDICATES FEW OR NO CLOUDS BELOW 12000 FEET WITH NO
SIGNIFICANT WEATHER AND/OR OBSTRUCTIONS TO VISIBILITY.

MTZ001>007-043-111200-
WEST OF THE DIVIDE

CITY           SKY/WX    TMP DP  RH WIND       PRES   REMARKS
KALISPELL      CLOUDY    24  21  88 NW3       30.62S
MISSOULA       FOG       17  16  95 CALM      30.63S VSB 3/4
BUTTE          FAIR       8   3  80 CALM      30.51F
MULLAN PASS    FAIR      38  32  79 S5        30.48S
ANACONDA         N/A     18   9  68 W3        30.51S
EUREKA           N/A    N/A N/A N/A MISG      30.67S
HAMILTON         N/A     16  12  86 CALM      30.59F VSB 1/4
LIBBY            N/A     19  18  93 CALM      30.63F
PLAINS           N/A     23  17  78 CALM      30.60S
RONAN            N/A     24  21  88 SE3       30.59S
$$

MTZ008-052>055-111200-
SOUTHWEST MONTANA

CITY           SKY/WX    TMP DP  RH WIND       PRES   REMARKS
BOZEMAN        FAIR      12   7  80 S6        30.50F WCI   3
DILLON         FAIR      22   9  57 S8        30.51F WCI  12
W YELLOWSTONE  FAIR      -6  -9  84 CALM      30.59S
ENNIS          CLOUDY    25  12  58 VRB5      30.54F
THREE FORKS      N/A      8   4  84 CALM      30.43S
TWIN BRIDGES     N/A     19   7  60 CALM      30.44S
$$

MTZ009-010-012-014-046-048-049-054-111200-
EAST SLOPES AND CENTRAL MONTANA

CITY           SKY/WX    TMP DP  RH WIND       PRES   REMARKS
CUT BANK       FAIR      34  16  47 W8        30.39F WCI  27
GREAT FALLS    FAIR      26  13  57 VRB6      30.42S WCI  19
MALMSTROM AFB  FAIR      27  16  62 W5        30.43R
HELENA         FAIR      16  13  88 NE5       30.52R
BOWMANS CRNR   FAIR      31  12  45 S10       30.41R WCI  22
CHOTEAU          N/A     30  14  51 CALM      30.43S
FAIRFIELD      FAIR      29  13  50 NW6       30.41S WCI  23
POWER          FAIR      23  13  65 W3        30.41S
RAYNESFORD     FAIR      26  16  65 CALM      30.42F
ULM            FAIR      27  17  65 CALM      30.43R
$$

MTZ011-013-016-021-045-047-050-051-111200-
NORTH CENTRAL MONTANA

CITY           SKY/WX    TMP DP  RH WIND       PRES   REMARKS
HAVRE          FAIR      22  16  78 W7        30.40R WCI  13
LEWISTOWN      FAIR      27  19  72 CALM      30.40S
N BAR RANCH    FAIR      36  14  41 W7G14     30.38S WCI  30
CHINOOK          N/A     28  19  69 W7        30.38R WCI  21
DENTON         FAIR      35  15  42 W9        30.38S WCI  28
GEYSER         FAIR      32  15  48 SW12      30.40  WCI  23
GRASS RANGE    FAIR      36  17  46 W18       30.35R WCI  26
STANFORD       FAIR      34  15  45 W5        30.41S
WINIFRED       FAIR      31  16  54 W9        30.38S WCI  23
$$

MTZ017>020-022>027-061-062-111200-
NORTHEAST MONTANA

CITY           SKY/WX    TMP DP  RH WIND       PRES   REMARKS
GLASGOW        FAIR      33  23  66 NW8       30.29R WCI  26
GLENDIVE       FAIR      38  26  62 NW25G39   30.21R WCI  27
JORDAN           N/A     40  19  43 NW16      30.30R
SIDNEY         CLOUDY    39  29  67 NW24G32   30.20R WCI  28
WOLF POINT     FAIR      39  28  64 NW18G26   30.25R WCI  30
MALTA          CLEAR     30  19  64 SW13      30.35R WCI  20
PLENTYWOOD       N/A     36  30  80 NW23G30   30.14R WCI  24
POPLAR           N/A     37  28  70 NW15G23   30.23R WCI  28
$$

MTZ028>42-056>058-111200-
SOUTHCENTRAL AND SOUTHEAST MONTANA

CITY           SKY/WX    TMP DP  RH WIND       PRES   REMARKS
BAKER          MOCLDY    38  27  64 NW22G39   30.20R WCI  27
BILLINGS       FAIR      36  14  40 NW7       30.39R WCI  30
LIVINGSTON     FAIR      30  14  51 NW17      30.45R WCI  18
MILES CITY     FAIR      38  21  50 W14G21    30.29R WCI  30
BIG TIMBER     CLEAR     41  10  28 W23G29    30.42R
FORSYTH          N/A     39  16  38 W8        30.33S
LAUREL           N/A     30  18  59 SW6       30.41R WCI  24
ROUNDUP          N/A     40  13  33 S8        30.24S
$$

REGIONAL REPORTS...DAKOTAS

CITY           SKY/WX    TMP DP  RH WIND       PRES   REMARKS
WILLISTON      CLOUDY    37  30  75 N29G44    30.12R WCI  25
MINOT          CLOUDY    38  33  82 NW23G35   29.96R WCI  27
DICKINSON      CLOUDY    37  30  75 NW29G40   30.06R WCI  25
BEACH          CLOUDY    37  27  65 NW30G41   30.18R WCI  25
CROSBY         CLOUDY    34  34 100 NW23G32   30.11R WCI  22
TIOGA          CLOUDY    34  34 100 N31G45    30.07R WCI  20
BISMARCK       CLOUDY    44  33  65 NW21G37   29.96R
GRAND FORKS    MIX PCPN  37  33  85 N18       29.74R WCI  27
FARGO          CLOUDY    37  33  85 NW17      29.73R WCI  27
BUFFALO SD       N/A     41  24  51 NW35G43   30.08R
RAPID CITY     FAIR      48  14  25 NW32G43   30.16S
$$

REGIONAL REPORTS...WYOMING/IDAHO/WASHINGTON

CITY           SKY/WX    TMP DP  RH WIND       PRES   REMARKS
GILLETTE       FAIR      36  15  42 W12       30.31R WCI  28
SHERIDAN       FAIR      36  14  40 E5        30.36R
BUFFALO WY     FAIR      40   9  28 N8        30.34R
CODY           FAIR      27  10  49 W3        30.40S
YELLOWSTONE LA   N/A      3   0  87 CALM      30.58F
IDAHO FALLS    FAIR      11   8  88 N3        30.59F
SALMON         CLOUDY    15  13  91 NE3       30.74S
BOISE          CLOUDY    23  21  92 S5        30.67F
SPOKANE        CLOUDY    25  24  96 NE6       30.58S WCI  18
$$

REGIONAL REPORTS...ALBERTA

CITY           SKY/WX    TMP DP  RH WIND       PRES   REMARKS
EDMONTON       CLEAR     30  21  69 W8        30.33S WCI  23
CALGARY        PTCLDY    23  12  63 NE2       30.38R
LETHBRIDGE     CLEAR     21  14  73 S6        30.40S WCI  14
MEDICINE HAT   CLEAR     23  18  80 SW8       30.39S WCI  14
$$

REGIONAL REPORTS...SASKATCHEWAN

CITY           SKY/WX    TMP DP  RH WIND       PRES   REMARKS
SWIFT CURRENT  CLOUDY    30  23  74 NW16G22   30.26S WCI  19
REGINA         CLOUDY    34  30  86 NW21G28   30.17R WCI  22
SASKATOON      CLOUDY    34  32  93 NW6       30.25R WCI  29
$$




USA.gov is the U.S. government's official web portal to all federal, state and local government web resources and services.